User: anonymous   Login
Location: Tr�vern
(48.0333°N, 4.6000°W)
Time: 02:01:54
(UTC+00:00)
Language:

Cosmos 192 - Orbit

View from above orbital plane
View from above orbital plane
View from above satellite
View from above satellite

Ground track
Ground track

The orbit data is extracted from the following two-line orbital elements,

1  3047U 67116A   20272.44696611 +.00000020 +00000-0 +11166-4 0  9996
2  3047 074.0144 021.9639 0008908 334.3028 025.7691 14.55648054794691
Epoch (UTC): 28 September 2020 10:43:37
Eccentricity: 0.0008908
inclination: 74.0144°
perigee height: 701 km
apogee height: 713 km
right ascension of ascending node: 21.9639°
argument of perigee: 334.3028°
revolutions per day: 14.55648054
mean anomaly at epoch: 25.7691°
orbit number at epoch: 79469

The dashed part of the orbit path shows where the satellite is in the earth's shadow,  

DLR